KE0DYO Weather Reports


time (UTC)temp
C
wind
direction
speed
KPH
gust
KPH
rain 1hr
cm
rain 24hr
cm
rain mn
cm
humidity
%
barometer
mb
20260504234526 26 360 1.6 4.8 0.00 0.00 0.00 51 1002.6
20260504233039 26 360 1.6 6.4 0.00 0.00 0.00 49 1002.7
20260504231558 26 360 3.2 6.4 0.00 0.00 0.00 52 1002.7
20260504230008 26 360 3.2 17.7 0.00 0.00 0.00 48 1002.7
20260504224524 26 360 1.6 16.1 0.00 0.00 0.00 52 1002.7
20260504223034 26 360 4.8 16.1 0.00 0.00 0.00 50 1002.7
20260504221604 26 360 4.8 12.9 0.00 0.00 0.00 51 1002.7
20260504220024 27 360 6.4 14.5 0.00 0.00 0.00 47 1002.8
20260504214538 27 360 3.2 11.3 0.00 0.00 0.00 50 1002.9
20260504213112 27 360 4.8 17.7 0.00 0.00 0.00 47 1002.8
20260504211508 27 360 6.4 16.1 0.00 0.00 0.00 49 1002.9
20260504210026 27 360 1.6 11.3 0.00 0.00 0.00 49 1002.9
20260504204538 26 360 4.8 11.3 0.00 0.00 0.00 51 1003.1
20260504203056 27 360 3.2 11.3 0.00 0.00 0.00 48 1003.3
20260504201505 26 360 4.8 17.7 0.00 0.00 0.00 49 1003.4
20260504200026 26 360 6.4 16.1 0.00 0.00 0.00 49 1003.5
20260504194542 26 360 3.2 9.7 0.00 0.00 0.00 47 1003.6
20260504193055 26 360 4.8 12.9 0.00 0.00 0.00 49 1003.6
20260504191529 26 360 4.8 12.9 0.00 0.00 0.00 50 1003.6
20260504190030 25 360 4.8 9.7 0.00 0.00 0.00 49 1003.8
20260504184546 25 360 3.2 16.1 0.00 0.00 0.00 53 1003.8
20260504183006 25 360 4.8 16.1 0.00 0.00 0.00 53 1004.0
20260504181522 25 360 1.6 9.7 0.00 0.00 0.00 55 1003.9
20260504180048 25 360 6.4 14.5 0.00 0.00 0.00 52 1004.1
20260504174550 24 360 3.2 14.5 0.00 0.00 0.00 50 1004.3
20260504173006 24 360 3.2 14.5 0.00 0.00 0.00 53 1004.3
20260504171532 24 360 4.8 11.3 0.00 0.00 0.00 54 1004.3
20260504081538 16 360 0.0 3.2 0.00 0.00 0.00 65 1007.2
20260504080114 16 360 0.0 0.0 0.00 0.00 0.00 67 1007.3
20260504050107 18 360 0.0 3.2 0.00 0.00 0.00 66 1009.8
20260504044502 19 360 0.0 4.8 0.00 0.00 0.00 64 1009.4
20260504043016 20 360 3.2 9.7 0.00 0.00 0.00 59 1009.7
20260504041532 20 360 4.8 9.7 0.00 0.00 0.00 60 1009.6
20260504040110 20 360 4.8 16.1 0.00 0.00 0.00 59 1009.7
20260504034505 20 360 9.7 12.9 0.00 0.00 0.00 59 1010.1
20260504033012 19 360 3.2 6.4 0.00 0.00 0.00 60 1009.7
20260504031535 20 360 3.2 6.4 0.00 0.00 0.00 59 1009.7
20260504030045 18 360 3.2 4.8 0.00 0.00 0.00 61 1009.9
20260504024502 20 360 1.6 9.7 0.00 0.00 0.00 61 1010.1
20260504023021 19 360 1.6 3.2 0.00 0.00 0.00 60 1009.9
20260504021536 20 360 0.0 4.8 0.00 0.00 0.00 57 1009.9
20260504020004 21 360 0.0 4.8 0.00 0.00 0.00 57 1010.0
20260504014523 21 360 0.0 1.6 0.00 0.00 0.00 54 1009.9
20260504013036 21 360 0.0 0.0 0.00 0.00 0.00 51 1009.8
20260504011546 22 360 0.0 4.8 0.00 0.00 0.00 51 1009.7
20260504010006 23 360 3.2 4.8 0.00 0.00 0.00 48 1009.5
20260504004517 23 360 3.2 4.8 0.00 0.00 0.00 47 1009.7
20260504003035 23 360 3.2 8.0 0.00 0.00 0.00 46 1009.8
20260504001602 24 360 4.8 12.9 0.00 0.00 0.00 45 1009.9
20260504000129 25 360 8.0 14.5 0.00 0.00 0.00 45 1009.9
20260504000003 25 360 8.0 12.9 0.00 0.00 0.00 45 1009.9